Weather in Gurdaspur

India     32°02′17″N   75°24′19″E
temp.,
°C
wind,
m/s
gust,
m/s
humid.,
%
clouds,
%
prec.,
mm/h
press.,
hPa
HPBL,
m
3 march, wed
wed323:30+14ne11340 0.0 101623
02:30+13ne11390 0.0 101523
05:30+12ne11490 0.0 101423
08:30+17ne12390 0.0 101592
11:30+28wnw12190 0.0 1014646
14:30+31nw34110 0.0 10112148
17:30+28n46160 0.0 1011163
20:30+20ne34230 0.0 101433
4 march, thu
thu423:30+18ene34280 0.0 101539
02:30+17ene233161 0.0 101526
05:30+16ne233175 0.0 101423
08:30+21ene342681 0.0 1016134
11:30+31e341273 0.0 10141268
14:30+33s33100 0.0 10114465
17:30+30e111727 0.0 101027
20:30+21ene45210 0.0 101374
5 march, fri
fri523:30+17nw23290 0.0 101426
02:30+16n33330 0.0 101428
05:30+15nne23330 0.0 101324
08:30+20nnw12250 0.0 101591
11:30+29nw35140 0.0 1013982
14:30+33wnw4490 0.0 10113157
17:30+30nw47100 0.0 1009502
20:30+20nw48160 0.0 1013114
6 march, sat
sat623:30+15nw11290 0.0 101323
02:30+14ne12330 0.0 101323
05:30+13ne22370 0.0 101223
08:30+19ese22290 0.0 1013119
11:30+30ese01150 0.0 1013665
14:30+33nnw34824 0.0 10102392
17:30+30n451218 0.0 1010308
20:30+22ne332056 0.0 101223
7 march, sun
sun723:30+22ne482369 0.0 1012125
02:30+24nne61322100 0.0 1010366
05:30+23ne492898 0.0 1010288
08:30+24e51127100 0.1 1011485
11:30+23e573897 0.3 1011419
14:30+23ne81040100 0.1 1008529
17:30+26ene10143091 0.1 1007852
20:30+17ne487042 1.1 1008140